Dewpoint
48 47 47 48 49 48 49 48 48 47 47 48 47 45 45 44 43 42 42 42 43 44 44 45 48 49 49 41 38 37 44 43 50 47 45 44 43 45 42 45 44 42 39 38 33 31 29
47 47 47 48 48 48 48 48 48 47 46 46 46 45 44 44 43 43 43 42 43 44 45 46 45 50 44 36 37 39 40 43 49 46 45 44 39 42 41 40 42 42 42 39 37 36 32
46 48 48 47 48 48 48 47 45 45 45 46 45 45 45 44 42 42 43 44 44 44 45 43 43 50 43 35 38 39 41 41 51 47 43 44 45 40 41 39 39 41 36 38 39 36 34
46 48 47 47 47 46 45 46 46 46 46 46 45 44 45 43 42 42 44 45 43 43 42 43 48 48 39 41 43 42 41 40 40 48 44 45 45 41 38 35 36 36 37 32 34 35 35
48 47 47 46 45 45 46 47 47 46 45 45 42 41 41 42 42 43 42 41 40 39 43 47 49 46 37 43 40 38 41 38 43 49 47 45 46 40 40 32 27 32 26 28 26 35 34
48 47 45 45 47 47 47 43 42 44 40 40 41 41 41 41 42 42 40 37 35 32 30 48 46 41 39 37 31 31 33 39 42 47 45 43 42 38 34 31 23 21 25 22 25 27 33
46 45 46 47 46 44 43 42 40 39 40 40 40 41 42 43 41 39 36 30 27 25 29 26 25 26 24 27 27 29 21 31 35 39 37 39 36 32 32 33 27 22 21 22 23 27 28
46 46 47 46 44 41 40 40 41 40 39 40 42 44 43 42 39 38 34 28 31 34 28 29 30 31 32 33 30 31 30 21 29 31 34 29 30 34 35 32 31 30 25 23 25 25 27
46 47 45 44 42 40 41 40 39 39 40 41 43 44 43 39 39 35 34 31 35 36 29 28 35 33 29 34 31 28 32 22 18 24 28 28 29 32 34 33 32 32 29 26 25 26 26
48 46 45 42 40 41 39 39 39 40 42 44 44 43 41 38 31 35 29 34 34 36 21 21 20 24 21 29 31 34 35 28 17 18 22 26 30 22 28 31 32 28 34 31 31 26 22
47 44 43 40 41 39 40 40 40 41 44 44 44 42 40 38 32 29 30 35 34 36 5 13 15 23 22 28 29 26 31 33 28 26 23 23 20 30 27 24 31 28 26 31 31 29 25
47 45 42 40 40 39 40 40 41 43 44 44 44 41 38 31 29 29 33 35 36 19 2 13 15 19 19 13 24 25 31 31 33 30 29 28 28 21 20 21 25 26 26 27 27 28 20
46 43 41 41 40 40 40 40 41 42 44 44 43 39 33 32 26 31 34 29 4 5 8 9 14 17 16 13 13 18 24 21 20 18 22 27 27 30 25 24 24 28 23 18 16 17 13
42 41 41 41 41 39 40 40 41 41 44 44 42 38 30 27 31 32 24 3 3 9 11 15 15 15 9 13 13 15 15 16 18 22 20 17 16 23 26 28 23 26 23 19 12 12 13
41 41 41 39 40 40 41 41 40 42 43 43 37 32 22 27 30 29 9 9 12 17 17 16 11 12 6 11 13 9 16 14 16 20 16 15 17 28 28 29 29 25 22 27 19 15 13
41 41 41 40 39 40 42 40 40 40 42 41 33 29 20 29 28 21 12 13 15 18 18 17 9 12 8 9 10 10 12 15 15 17 19 19 15 21 26 27 30 27 27 20 23 13 12
41 41 41 40 41 42 42 40 38 38 40 39 31 16 22 30 25 17 15 17 19 17 19 18 15 12 11 12 13 12 14 18 20 17 18 18 19 17 21 20 20 24 23 24 24 21 12
41 41 39 38 41 42 43 41 38 40 39 36 29 8 27 28 15 17 14 16 20 16 16 16 19 14 17 17 13 16 17 19 22 17 15 16 16 11 18 23 25 20 19 20 18 16 18
38 40 41 41 41 41 41 40 39 40 39 35 26 25 28 24 16 14 15 13 15 15 16 17 19 17 18 18 15 18 20 25 19 18 19 18 11 3 13 19 14 17 19 20 20 18 16
39 38 39 42 40 41 39 40 40 39 38 35 27 15 20 20 22 19 17 13 13 16 19 20 21 16 15 13 14 18 15 21 18 20 19 17 13 7 2 7 11 10 14 19 18 16 15
39 40 40 40 37 38 37 40 41 40 37 33 28 21 26 17 18 20 17 15 13 15 18 21 15 17 18 13 12 11 13 16 16 19 17 15 10 11 9 11 12 12 11 17 16 16 14
39 40 39 41 40 39 39 39 40 41 38 33 25 24 27 21 22 19 16 14 14 16 18 16 17 18 19 15 16 14 16 17 17 17 17 16 10 11 6 8 7 9 11 15 19 18 19
38 37 40 39 40 39 37 36 38 41 38 33 34 33 28 21 20 16 17 18 17 17 16 21 22 17 17 20 22 21 21 21 19 17 17 16 13 10 1 6 5 3 12 10 17 16 15
38 39 40 39 39 38 38 36 39 42 39 36 35 32 25 17 19 19 20 19 17 16 17 20 22 19 19 22 18 18 19 19 18 18 20 15 14 12 5 4 -2 13 16 13 14 18 17
38 38 39 40 40 38 39 38 39 41 38 35 36 33 28 19 22 18 19 19 18 17 17 18 18 20 22 18 12 10 5 7 11 17 20 19 15 10 6 5 10 15 18 16 14 15 18
40 40 39 39 38 38 38 38 39 40 39 37 34 35 31 23 20 25 20 20 17 16 15 16 18 22 19 16 11 8 3 9 6 8 18 18 18 13 11 5 2 14 18 20 20 11 17
39 39 39 38 37 38 38 38 36 38 40 36 36 35 32 23 25 23 19 20 22 19 16 16 17 18 18 13 9 8 6 12 6 9 10 9 11 8 8 7 11 18 19 18 7 12 18
39 39 38 38 38 37 38 37 36 37 39 36 35 35 31 24 25 25 22 21 21 19 16 17 16 15 16 12 12 11 10 12 9 12 13 11 9 7 7 5 4 19 16 12 17 21 21
38 38 38 38 38 37 37 35 36 36 34 35 30 33 31 27 24 30 28 28 24 22 22 20 19 20 20 15 14 14 12 12 10 7 15 10 14 12 13 12 18 19 18 21 21 20 20
Wind_Speed
20 20 22 22 23 23 23 24 24 25 26 26 26 30 30 32 34 35 35 38 37 34 31 28 20 15 8 10 17 9 6 5 21 28 33 33 32 35 34 28 28 30 24 26 22 23 17
20 21 22 22 23 23 24 25 25 27 29 29 30 31 31 34 36 38 39 40 38 38 32 23 20 18 13 21 4 6 8 3 20 32 32 32 24 37 22 25 28 14 22 22 23 28 17
21 21 21 23 24 25 25 25 26 28 28 29 31 33 34 36 38 41 43 45 42 34 29 26 21 15 20 24 1 5 2 3 13 33 32 34 17 33 14 20 15 28 11 25 30 19 20
21 22 23 24 25 25 26 27 28 29 31 32 34 36 37 37 38 40 43 44 37 34 29 19 13 15 12 7 13 13 18 15 12 24 26 28 29 26 14 6 8 26 27 30 17 28 16
21 22 23 24 25 27 28 30 31 31 33 35 37 38 38 38 38 39 36 38 32 21 14 8 5 8 9 2 6 10 14 13 11 16 22 16 25 16 22 21 20 19 25 29 27 24 19
21 23 23 25 27 29 30 31 32 33 35 35 35 36 37 37 37 34 31 25 14 11 18 1 4 3 4 7 12 20 3 10 8 16 8 17 19 20 26 29 39 26 29 26 30 27 27
23 22 25 26 27 29 31 32 33 34 34 35 36 36 37 36 32 23 22 7 13 5 25 8 22 22 25 26 27 9 5 6 5 20 21 6 22 35 34 34 32 22 24 27 21 15 26
22 24 25 27 28 30 31 31 32 34 34 36 37 36 36 33 23 16 15 13 13 7 12 15 10 8 15 6 7 13 11 11 16 24 24 5 23 22 25 33 30 25 22 26 8 12 20
23 24 25 26 28 29 29 30 31 33 35 36 36 36 34 30 18 10 11 12 13 6 6 8 1 10 10 6 8 13 11 11 26 25 29 32 15 14 12 11 20 20 29 22 16 15 13
23 24 25 26 28 28 29 29 32 34 35 35 36 35 32 26 6 15 14 19 19 4 4 13 14 6 14 18 4 17 7 6 10 22 26 22 23 10 18 21 17 21 14 16 14 19 11
22 23 24 27 26 27 28 30 33 34 33 35 36 35 30 14 14 13 23 25 15 5 3 21 11 10 24 8 8 19 15 7 3 7 8 9 7 17 13 17 19 12 8 21 14 14 9
22 23 25 24 26 26 28 30 33 33 33 34 35 33 24 16 14 16 24 17 4 1 8 12 13 21 22 15 8 10 8 8 3 4 10 7 7 2 8 16 16 9 8 3 13 14 15
23 24 23 23 25 27 28 30 32 33 35 36 36 28 14 9 20 27 16 5 3 10 20 18 22 29 15 22 16 19 11 25 15 9 0 7 5 3 2 7 9 13 21 9 9 10 9
23 21 22 23 25 25 27 30 33 35 34 36 36 15 13 9 23 19 9 13 14 13 17 21 23 18 13 23 14 16 12 14 18 13 4 10 3 5 3 2 6 21 18 6 7 13 13
20 21 21 23 24 26 27 30 32 33 34 35 23 8 17 24 22 12 7 20 8 11 16 16 19 11 15 21 15 14 8 13 12 15 8 10 4 2 3 2 2 5 5 5 5 2 11
20 21 21 23 25 26 27 28 30 32 34 32 8 8 22 30 16 8 11 9 7 14 16 12 12 11 17 21 17 18 14 12 12 12 8 8 5 9 3 2 3 2 3 4 4 8 5
19 20 21 23 25 26 25 26 28 30 34 24 5 4 20 29 7 14 14 8 6 15 15 10 12 12 15 17 17 10 10 5 15 17 7 10 5 8 5 10 9 2 2 1 3 3 4
19 20 21 22 24 25 25 25 27 30 29 10 5 4 16 17 21 8 13 11 13 21 17 9 8 13 14 20 8 6 7 8 14 14 11 10 5 5 6 8 9 20 10 8 3 4 3
19 21 22 23 23 24 25 25 26 28 23 5 4 4 7 14 12 19 15 16 14 21 15 11 10 14 19 9 7 5 9 12 14 13 10 10 6 3 1 2 9 9 14 12 5 3 2
19 19 21 22 22 23 23 22 23 25 22 4 4 7 6 9 10 12 15 16 21 15 7 11 7 14 16 9 14 11 16 8 12 12 14 3 5 7 5 2 6 7 13 14 8 1 6
18 20 21 21 21 20 21 22 22 21 20 3 7 5 5 11 16 15 15 15 20 19 8 13 9 21 13 7 13 15 12 11 5 13 9 5 4 5 4 4 4 7 10 11 10 7 2
17 18 20 20 20 19 20 22 22 20 13 5 4 5 3 5 9 11 15 13 16 22 6 12 16 19 8 9 9 16 11 7 5 11 9 8 3 4 3 6 7 3 11 6 5 6 6
17 17 18 19 18 18 19 19 19 16 10 5 4 2 1 5 10 12 12 12 14 16 5 4 10 14 9 14 19 13 7 9 5 6 8 5 4 5 3 7 6 1 12 7 4 8 5
16 17 18 18 17 16 17 18 17 12 9 3 2 2 3 5 7 8 11 9 17 13 9 10 9 8 6 20 4 2 1 1 2 6 5 3 3 3 4 6 3 2 6 4 5 10 11
15 16 16 16 16 16 16 16 15 11 6 4 2 2 1 4 5 6 14 9 16 13 7 5 9 11 16 6 3 3 2 1 4 6 12 0 2 3 4 4 1 2 6 6 4 7 12
15 16 15 15 14 14 14 15 15 11 4 3 4 3 1 2 2 4 6 5 7 13 13 5 10 8 9 4 4 6 7 6 6 9 4 6 1 3 2 4 5 11 11 8 2 5 14
14 14 14 13 13 12 13 12 13 13 2 2 2 3 1 1 2 1 4 6 4 6 8 7 14 10 9 9 6 5 5 3 6 9 8 8 5 7 8 4 3 14 13 2 1 5 10
13 13 13 12 11 11 11 12 12 13 7 2 2 4 1 1 4 2 2 3 3 3 7 11 7 5 8 9 6 4 3 4 3 4 6 7 7 6 4 3 4 23 3 5 6 6 4
12 12 11 11 10 10 11 13 11 11 11 2 2 3 3 3 3 3 1 1 2 2 3 5 4 4 5 4 2 2 2 2 3 4 3 3 5 4 5 4 5 7 8 8 6 6 7
Wind_Direction
19 16 13 9 7 3 359 356 352 348 343 343 344 343 341 338 337 333 329 323 318 313 309 303 294 277 160 223 245 268 304 323 181 193 199 199 203 201 209 205 208 218 223 224 228 221 217
16 13 11 8 4 360 356 352 350 347 348 347 342 340 337 336 334 330 326 321 315 309 306 297 293 271 206 240 298 286 240 273 182 192 197 197 209 206 222 223 205 187 223 231 226 225 221
15 11 9 5 1 358 354 352 353 352 348 346 342 339 336 335 333 330 325 319 314 309 303 297 282 228 223 234 63 356 268 283 213 196 196 202 197 198 204 219 218 236 223 232 229 226 219
14 12 7 3 -0 357 355 354 350 346 347 346 346 341 337 335 332 328 323 315 313 309 302 291 239 194 240 253 268 269 257 265 240 210 210 199 205 213 213 200 203 219 231 233 211 220 207
13 9 6 1 358 358 354 354 353 351 351 350 343 340 336 334 329 328 326 313 315 315 307 284 205 193 264 335 261 298 243 236 214 206 207 205 205 203 201 210 213 201 223 226 229 204 207
11 8 2 2 360 359 358 356 352 351 348 344 345 343 338 334 331 333 334 336 323 18 349 67 91 229 271 334 344 313 280 229 209 181 189 198 198 206 214 204 215 210 220 226 219 210 213
10 5 4 3 5 359 356 356 353 348 349 348 345 342 341 336 342 347 351 353 16 353 350 284 294 299 308 310 306 276 348 205 218 202 204 219 192 207 206 211 221 226 224 229 215 203 209
5 4 7 8 3 1 356 353 351 350 350 348 346 343 346 345 346 350 7 31 34 304 308 315 319 295 280 272 302 312 295 237 210 222 217 217 221 221 222 212 211 228 229 226 206 196 211
1 6 10 3 4 1 358 355 351 351 351 349 347 346 349 345 334 349 342 23 348 314 281 -0 353 322 355 316 323 331 330 234 232 232 224 226 230 212 198 189 203 208 215 212 207 183 211
4 8 7 6 2 0 356 355 352 352 350 348 349 349 346 344 330 337 328 339 334 254 284 8 350 341 337 323 358 345 27 312 217 232 229 238 237 253 229 225 196 232 177 168 157 164 193
4 10 7 2 1 357 355 354 352 350 348 346 348 348 343 354 320 337 322 321 321 178 43 334 346 330 338 21 310 357 6 3 258 228 192 200 201 208 223 232 207 242 239 210 179 189 183
6 9 7 359 359 357 356 354 349 347 347 346 348 342 343 347 329 330 323 316 190 217 1 337 335 343 349 5 17 335 62 40 260 277 214 236 352 22 269 238 216 148 133 238 225 205 217
15 7 3 2 358 356 356 349 347 348 347 346 345 339 349 337 335 322 325 311 33 35 340 340 332 337 340 357 13 8 13 38 24 342 127 177 194 55 16 155 174 159 154 166 181 197 215
6 3 2 3 357 357 353 348 348 349 347 345 341 344 352 356 341 336 334 53 54 354 351 326 336 341 11 8 360 21 24 28 19 3 328 5 101 360 2 299 203 178 181 204 173 180 174
5 4 2 2 356 356 353 351 351 349 345 346 341 347 1 347 341 335 27 47 29 359 333 329 336 357 359 358 350 1 40 25 19 6 359 359 21 266 50 321 242 164 208 109 106 24 165
7 2 0 359 354 355 354 356 354 349 345 348 338 330 5 344 344 11 51 70 21 355 337 339 357 357 355 352 353 359 14 18 357 13 356 343 302 23 22 263 103 241 93 171 203 165 158
5 3 360 359 355 356 356 358 358 352 346 347 21 30 354 342 357 48 48 18 335 348 354 342 344 342 340 343 333 341 -0 47 6 347 360 354 338 349 344 19 358 44 117 331 45 356 180
4 1 360 1 357 358 1 359 358 356 353 12 359 36 348 345 43 27 20 355 326 350 354 353 337 352 342 332 324 336 341 15 357 356 355 360 344 11 47 40 57 62 24 9 278 139 70
5 1 1 358 359 3 4 1 2 358 8 336 29 331 1 12 36 14 8 359 355 349 357 360 348 353 335 331 319 327 358 357 2 10 13 336 17 327 313 162 25 26 10 2 288 274 140
1 3 2 2 7 4 4 6 7 1 4 53 23 11 16 34 32 8 5 4 0 359 4 350 335 355 355 7 6 12 10 360 353 5 7 21 42 40 55 26 329 344 3 2 3 252 146
3 2 1 1 7 8 5 9 7 3 3 60 22 44 17 354 3 358 2 4 357 2 342 8 354 6 5 350 349 2 353 344 5 10 7 37 48 12 15 14 9 335 355 -0 15 5 323
2 359 -0 2 5 6 9 6 8 5 1 60 34 360 355 323 328 356 14 360 354 346 327 353 358 346 342 8 348 318 328 356 2 337 4 353 28 353 61 12 0 18 20 359 4 6 69
356 359 358 1 3 5 8 8 10 19 18 54 35 41 17 347 353 5 4 334 330 347 306 332 343 341 335 343 322 302 271 296 304 328 346 12 6 2 44 348 320 132 360 337 339 37 2
352 356 357 358 360 2 6 6 9 34 47 73 36 355 17 343 356 352 338 339 335 337 299 302 334 337 320 323 295 177 134 193 314 21 4 359 17 9 334 326 82 61 6 10 88 43 22
354 356 356 356 359 1 10 4 11 31 65 82 61 42 345 324 330 337 343 336 334 335 334 288 340 319 313 310 341 358 8 302 24 22 18 132 358 3 354 6 45 57 14 8 10 40 14
355 354 355 356 2 5 9 4 1 17 100 96 57 344 83 310 339 316 330 328 344 340 337 300 328 330 345 355 28 28 27 334 344 357 32 62 67 338 329 10 50 9 340 337 310 61 0
353 356 353 357 2 9 12 13 11 11 41 110 56 19 134 275 237 326 356 325 323 319 306 307 342 339 357 11 43 26 25 328 354 357 340 0 356 15 16 38 55 359 329 308 350 358 353
353 354 356 360 359 13 21 15 12 20 35 64 92 22 27 222 274 248 329 302 323 337 344 320 326 12 351 27 6 3 339 12 325 333 344 359 347 9 348 16 17 352 4 49 340 4 30
352 357 1 2 3 12 21 20 18 30 32 59 66 1 330 245 283 338 19 292 200 219 308 319 317 331 355 339 342 303 320 307 327 357 14 5 353 345 13 41 37 14 48 30 25 40 24